Rbgn^[z[y[W
メイン
   新天体発見情報
     Comet P/2012 F5 (Gibbs)
投稿するにはまず登録を

スレッド表示 | 新しいものから 前のトピック | 次のトピック | 下へ
投稿者 スレッド
佐藤裕久
投稿日時: 2012-3-27 22:43
モデレータ
登録日: 2005-6-12
居住地: 日本
投稿: 2683
オンライン
Comet P/2012 F5 (Gibbs)

Alex R. Gibbsは、3月22.29日UT、Mt. Lemmonサーベイの1.5-m反射望遠鏡の画像から
18.1等の彗星を発見した。
4×30秒露光で恒星状のコマとp.a. 292.5°に 7.3'-7.4'の狭い尾が見える。
小惑星センターのNEOCP webpageに公表後、Bringfried Stecklum (Thueringer
Landessternwarte, Tautenburg, ドイツ、2-m Tautenburg望遠鏡、Schmidt設定、
補正plate 1.34-m, f/2)や佐藤英貴氏(東京都大田区, RAS天文台, 0.25-m f/3.4 
アストログラフ, Mayhill近郊, ニューメキシコ州, 遠隔操作)ら位置観測者によって
彗星状として観測された。

発見位置は次のとおり、

     2012 UT             R.A. (2000) Decl.       Mag.   Observer
     Mar. 22.28771   11 15 10.24   - 5 33 32.0          Gibbs
          22.28943   11 15 10.20   - 5 33 31.5            "
          22.29118   11 15 10.09   - 5 33 30.7            "
          22.29289   11 15 10.05   - 5 33 29.9            "
          22.39053   11 15 05.89   - 5 32 47.6   18.1     "
          22.39427   11 15 05.78   - 5 32 46.3            "
          22.39784   11 15 05.62   - 5 32 44.7            "
          22.40141   11 15 05.46   - 5 32 42.9            "

楕円軌道要素、位置推算表は次のとおり、

Orbital elements:
    P/2012 F5 (Gibbs)
T 2010 Sept. 15.26927 TT                                MPC
q   1.8765223            (2000.0)            P               Q
n   0.18525890     Peri.  189.59248     +0.82169376     -0.56111688
a   3.0475441      Node   205.35004     +0.53713964     +0.82100508
e   0.3842510      Incl.   13.48443     +0.19052657     +0.10534945
P   5.32
From 45 observations 2012 Mar. 22-25.

Ephemeris:
    P/2012 F5 (Gibbs)
Date    TT    R. A. (2000) Decl.     Delta      r     Elong.  Phase   m1
2012 02 24    11 34 44.9 -08 29 52   2.6614  3.5822   154.9     6.7  19.7
...
2012 03 10    11 23 58.4 -06 59 51   2.6449  3.6245   168.9     3.0  19.7
...
2012 03 18    11 18 09.4 -06 04 16   2.6641  3.6464   169.2     2.9  19.7
...
2012 03 24    11 14 01.2 -05 21 10   2.6914  3.6626   164.7     4.1  19.8
2012 03 25    11 13 21.5 -05 13 58   2.6970  3.6653   163.8     4.4  19.8
2012 03 26    11 12 42.5 -05 06 46   2.7029  3.6680   162.9     4.6  19.8
...
2012 04 01    11 09 02.6 -04 24 01   2.7445  3.6839   156.8     6.1  19.9
...
2012 04 09    11 04 54.0 -03 29 30   2.8154  3.7047   148.2     8.2  19.9
...
2012 04 24    10 59 52.2 -02 01 02   2.9899  3.7426   132.4    11.4  20.1

Computer: Williams

(CBET 3069、MPEC 2012-F87)
スレッド表示 | 新しいものから 前のトピック | 次のトピック | トップ

投稿するにはまず登録を
 
© 1999 Tsutomu Seki.